www.pogodaiklimat.ru

Погода и климат >> Архив погоды >> Мексика >> Ejido Nuevo Leon


ПОГОДА в Ejido Nuevo Leon

  • Прогноз погоды в Ejido Nuevo Leon
  • Монитор погоды в Ejido Nuevo Leon
  • Климат города

АРХИВ ПОГОДЫ в Ejido Nuevo Leon

Время (UTC), дата Ветер
(напр.,м/с)
 
Видим.   Явления Облачность Т
(С)
Тd
(С)
f
(%)
Тe
(С)
Тes
(С)
Комфортность P
(гПа)
Po
(гПа)
Тmin
(С)
Tmax
(С)
R
(мм)
R24
(мм)
S
(см)
12 15.04 В 1 2000 м ясно +11.4 +7.2 75 +11 +11 1014.9 1013.6 +10.5 +31.6
15 15.04 Ю 1 10 км ясно +16.6 +5.8 49 +18 +21 1015.5 1014.1
18 15.04 СВ 1 10 км ясно +28.7 +7.8 27 +28 +47 жарко 1014.8 1013.4 +10.0 +30.0
21 15.04 ЮВ 2 10 км 8/0
[As op]
+32.7 +6.1 19 +31 +37 жарко 1011.8 1010.5
00 16.04 В 2 10 км 8/0
[As op]
+34.5 +6.5 18 +32 +34 жарко 1009.6 1008.3 +10.0 +35.4
03 16.04 Ю 2 4000 м 5/0
[As op]
+27.8 +9.9 33 +28 +28 жарко 1010.0 1008.7
06 16.04 СЗ 2 200 м 5/0
[As op]
+21.1 +9.7 48 +22 +22 комфорт 1010.6 1009.3 +10.0 +35.4
09 16.04 СВ 1 200 м 8/0
[As op]
+19.9 +10.0 53 +22 +22 комфорт 1010.6 1009.3
12 16.04 ЮВ 2 200 м 8/0
[As op]
+17.9 +8.8 55 +18 +18 1010.8 1009.5 +17.4 +35.4
15 16.04 СВ 1 10 км 10/0
[As op]
+18.4 +8.7 53 +20 +21 1012.0 1010.7
18 16.04 СВ 1 10 км 8/0
[As op]
+23.2 +10.0 43 +25 +32 комфорт 1013.3 1012.0 +17.0 +24.0
21 16.04 ЮВ 3 10 км 8/0
[As op]
+27.8 +10.4 34 +28 +34 жарко 1011.5 1010.2
00 17.04 В 3 10 км 4/0
[Ac trans]
+28.2 +9.5 31 +28 +28 жарко 1009.3 1008.0 +17.0 +30.0
03 17.04 СЗ 3 10 км ясно +23.0 +12.9 53 +26 +26 жарко 1010.1 1008.8
06 17.04 СЗ 6 2000 м ясно +17.2 +9.5 61 +16 +16 1012.8 1011.5 +17.0 +30.0
09 17.04 З 7 2000 м ясно +14.2 +9.5 73 +12 +12 1015.2 1013.9
12 17.04 З 3 2000 м ясно +12.4 +7.4 72 +11 +11 1018.1 1016.7 +10.2 +30.0
15 17.04 С 3 10 км ясно +14.2 +5.2 55 +13 +16 1020.3 1018.9
18 17.04 СЗ 4 10 км ясно +20.0 +2.0 30 +20 +31 1021.3 1019.9 +10.2 +20.5
21 17.04 СЗ 3 10 км ясно +23.4 +6.0 32 +24 +38 комфорт 1019.5 1018.1
00 18.04 СЗ 3 10 км ясно +24.5 +7.0 33 +25 +29 комфорт 1016.7 1015.4 +10.2 +25.7
03 18.04 СЗ 1 2000 м ясно +20.4 +7.5 43 +23 +23 комфорт 1016.3 1015.0
06 18.04 З 1 2000 м ясно +16.6 +8.3 58 +18 +18 1017.0 1015.7 +10.2 +25.7
09 18.04 Ю 1 2000 м ясно +11.4 +8.5 82 +11 +11 1016.3 1015.0
12 18.04 ЮВ 1 2000 м ясно +9.0 +6.8 86 +8 +8 1016.4 1015.0 +8.7 +25.7
15 18.04 В 1 10 км ясно +15.3 +4.2 47 +16 +20 1017.5 1016.1
18 18.04 СЗ 2 10 км ясно +24.8 +7.7 34 +25 +41 комфорт 1018.0 1016.6 +8.2 +25.7
21 18.04 ЮВ 3 10 км ясно +28.4 +4.4 22 +27 +42 жарко 1015.6 1014.2
00 19.04 В 3 10 км ясно +28.8 +4.6 21 +27 +31 жарко 1012.2 1010.9 +8.2 +29.6
03 19.04 ЮВ 3 2000 м ясно +22.2 +7.5 39 +23 +23 комфорт 1011.8 1010.5
06 19.04 ЮВ 1 2000 м ясно +16.0 +11.9 77 +17 +17 1011.9 1010.6 +8.2 +29.6
09 19.04 С 1 2000 м ясно +12.6 +9.8 83 +13 +13 1011.8 1010.5
12 19.04 В 1 2000 м ясно +10.8 +7.9 82 +11 +11 1011.5 1010.2 +10.2 +29.6
15 19.04 Ю 1 10 км ясно +15.2 +4.9 50 +16 +20 1013.0 1011.6
18 19.04 З 8 10 км ясно +21.1 -0.5 24 +21 +24 комфорт 1014.1 1012.7 +10.2 +21.1
21 19.04 СЗ 5 10 км ясно +23.4 +5.5 31 +24 +33 комфорт 1013.2 1011.8
00 20.04 З 7 10 км ясно +23.1 +2.0 25 +23 +24 комфорт 1011.5 1010.2 +8.2 +24.2
03 20.04 СЗ 7 2000 м ясно +19.0 +1.7 31 +19 +19 1012.3 1011.0
06 20.04 З 4 2000 м ясно +15.7 +3.7 45 +15 +15 1013.8 1012.5 +8.2 +24.2
09 20.04 ЮВ 1 2000 м ясно +12.3 +6.6 68 +12 +12 1014.8 1013.5
12 20.04 В 1 2000 м ясно +9.4 +5.4 76 +9 +9 1016.5 1015.1 +8.5 +24.2
15 20.04 В 1 10 км ясно +13.8 +4.1 52 +14 +18 1017.5 1016.1
18 20.04 З 2 10 км ясно +23.4 +6.6 34 +24 +41 комфорт 1017.6 1016.2 +8.5 +23.8
21 20.04 З 3 10 км ясно +28.0 +4.9 23 +27 +42 жарко 1015.6 1014.2
00 21.04 З 3 10 км ясно +29.4 +4.4 20 +28 +32 жарко 1014.5 1013.2 +8.5 +30.2
03 21.04 З 1 2000 м ясно +25.8 +13.1 45 +28 +28 жарко 1014.6 1013.3
06 21.04 Ю 2 2000 м ясно +19.2 +9.3 53 +21 +21 комфорт 1016.2 1014.9 +8.5 +30.2
09 21.04 В 1 2000 м ясно +14.6 +9.9 73 +15 +15 1016.0 1014.7
12 21.04 В 1 2000 м ясно +12.1 +9.9 86 +12 +12 1015.6 1014.3 +11.2 +30.2
15 21.04 ЮВ 1 10 км ясно +17.4 +6.9 50 +18 +23 1017.2 1015.8
18 21.04 С 2 10 км ясно +28.0 +11.5 36 +29 +46 жарко 1017.1 1015.7 +11.0 +29.5
21 21.04 СЗ 2 10 км ясно +33.0 +8.8 22 +32 +50 жарко 1014.7 1013.4
00 22.04 ЮВ 2 10 км ясно +32.4 +11.0 27 +32 +37 жарко 1012.0 1011.3 +11.0 +34.2
03 22.04 ЮВ 1 2000 м ясно +26.4 +15.5 51 +29 +29 жарко 1012.2 1010.9
06 22.04 Ю 1 2000 м ясно +20.6 +15.2 71 +25 +25 комфорт 1012.4 1011.1 +19.0 +34.2
09 22.04 ЮВ 1 2000 м ясно +16.6 +12.2 75 +17 +17 1011.7 1010.4

 

Местоположение метеостанции Ejido Nuevo Leon (Мексика): широта 32.40 долгота -115.10 высота над уровнем моря 11 м.

В архиве по умолчанию представлена погода в Ejido Nuevo Leon за последнюю неделю. Архивные данные за месяц целиком и за предыдущие месяцы, начиная с января 2011 года, Вы можете получить, выбрав интересующий диапазон дат из раскрывающегося списка и нажав кнопку "Ввод!".


*Определитесь, кто Вы:
робот инопланетянин человек

Внимание! Время в таблицах - всемирное. Для получения местного времени необходимо прибавить поправку, которая в Ejido Nuevo Leon равна -8 ч.

Смотрите также архив погоды в соседних городах и на ближайших метеорологических станциях:

Погода в San Felipe (Мексика) (155 км)
Погода в Puerto Penasco (Мексика) (191 км)
Погода в Altar Son (Мексика) (362 км)
Погода в Hermosillo (Мексика) (534 км)
Погода в Hermosillo la Magna (Мексика) (542 км)
Погода в Pilares de Nacoz (Мексика) (562 км)
Погода в Santa Rosalia (Мексика) (632 км)
Погода в Guaymas (Мексика) (643 км)
Погода в Empalme (Мексика) (651 км)
Погода в Nueva Casas Grandes (Мексика) (720 км)

Пояснения к столбцам:

Ветер - указаны скорость ветра в м/с - средняя за 10 мин, порывы в срок и между сроками (в фигурных скобках) и направление, откуда дует ветер: С - северный, СВ - северо-восточный, В - восточный, ЮВ - юго-восточный, Ю - южный, ЮЗ - юго-западный, З - западный, СЗ - северо-западный.
Видимость - горизонтальная дальность видимости в метрах или километрах. При видимости от 1 до 10 км при отсутствии осадков обычно наблюдается дымка, при ухудшении видимости до 1 км и менее - туман. В сухую погоду видимость может ухудшаться дымом, пылью или мглою.
Явления - указаны атмосферные явления, наблюдавшиеся в срок или в последний час перед сроком; фигурными скобками обозначены явления, наблюдавшиеся между сроками (за 1-3 часа до срока); квадратными скобками обозначены град или гололедные отложения с указанием их диаметра в мм.
Облачность - указаны через наклонную черту общая и нижняя облачность в баллах и высота нижней границы облаков в метрах; квадратными скобками обозначены формы облаков: Ci - перистые, Cs - перисто-слоистые, Cc - перисто-кучевые, Ac - высококучевые, As - высокослоистые, Sc - слоисто-кучевые, Ns - слоисто-дождевые, Cu - кучевые, Cb - кучево-дождевые. Подробнее классификацию облаков см. в Атласе облаков (PDF).
T - Температура воздуха - температура, измеренная на высоте 2 м над землей.
Td - Температура точки росы - температура, при понижении до которой содержащийся в воздухе водяной пар достигнет насыщения.
f - Относительная влажность воздуха - влажноcть воздуха, измеренная на высоте 2 м над землей.
Te - Эффективная температура - температура, которую ощущает одетый по сезону человек в тени. Характеристика душности погоды. При расчете учитывается влияние влажности воздуха и скорости ветра на теплоощущения человека.
Tes - Эффективная температура на солнце - температура, которую ощущает человек, с поправкой на солнечный нагрев. Характеристика знойности погоды. Зависит от высоты солнца над горизонтом, облачности и скорости ветра. Ночью, в пасмурную погоду, а также при ветре 12 м/с и более поправка равна нулю.
P - Атмосферное давление - приведенное к уровню моря атмосферное давление.
Po - Атмосферное давление - измеренное на уровне метеостанции атмосферное давление.
Tmin - Минимальная температура - минимум температуры воздуха на высоте 2 м над землей.
Tmax - Максимальная температура - максимум температуры воздуха на высоте 2 м над землей.
R - Количество осадков - Количество выпавших осадков за период времени, мм. При наведении курсора мыши на число - период времени, за который выпало указанное количество осадков.
R24 - Количество осадков - Количество выпавших осадков за 24 часа, мм.
S - Снежный покров - Высота снежного покрова, см. При наведении курсора мыши на число - состояние снежного покрова и степень покрытия местности в баллах.